Regional Weather Roundup
Issued by NWS Midland/Odessa, TX

Skip options and go directly to product.
Home | Oldest Version | Next Version | Current Version | All | Text Only | Save Text | Print | Product List | Glossary On

Skip product version selection by date and time.   
930
ASUS44 KMAF 250702
RWRMAF
MIDLAND AREA WEATHER ROUNDUP
NATIONAL WEATHER SERVICE MIDLAND TX
200 AM CDT SAT OCT 25 2014

...IN SOUTHWEST TEXAS AND SOUTHEAST NEW MEXICO...

CITY           SKY/WX    TMP DP  RH WIND       PRES   REMARKS
ALPINE         CLEAR     58  52  83 SW8       30.31F
ANDREWS        FAIR      62  55  75 S8        30.18S
ARTESIA        NOT AVBL
BIG SPRING     CLEAR     64  56  77 SE7       30.19S
CARLSBAD       CLEAR     60  53  77 SW8       30.15S
DRYDEN           N/A     65  61  87 N7        30.14F
FORT STOCKTON  CLEAR     64  59  83 S10       30.17F
GUAD PASS      NOT AVBL
HOBBS          CLEAR     57  48  72 S7        30.20S
MARFA          CLEAR     50  46  87 CALM      30.30F
MIDLAND AIRPK  CLEAR     67  57  68 S8        30.18S
MIDLAND INTL   CLEAR     65  55  70 S6        30.17S
ODESSA         CLEAR     65  55  70 S7        30.18S
PECOS          CLEAR     59  53  80 CALM      30.14S
PRESIDIO       FAIR      68  51  53 N9        30.16S
SEMINOLE       CLEAR     59  53  78 SW6       30.20R
SNYDER         CLEAR     63  55  74 S6        30.16S
WINK           CLEAR     62  54  74 SE6       30.14S
$$
...OTHER STATIONS IN TEXAS...

CITY           SKY/WX    TMP DP  RH WIND       PRES   REMARKS
ABILENE        CLEAR     69  55  60 S8        30.13S
AMARILLO       CLEAR     54  46  74 SW9       30.15S
AUSTIN         CLEAR     57  56  96 CALM      30.15S
BROWNSVILLE    CLEAR     67  65  93 CALM      30.13S
CORPUS CHRISTI CLEAR     66  62  87 SW3       30.13S
DALLAS FTW     CLEAR     67  59  75 S9        30.09S
DEL RIO        CLEAR     68  62  81 E6        30.12S
EL PASO        PTCLDY    63  48  58 CALM      30.20S
HOUSTON INT    CLEAR     59  58  96 CALM      30.13S
LUBBOCK        CLEAR     61  49  64 SW6       30.16S
SAN ANGELO     CLEAR     65  57  75 SW7       30.14F
SAN ANTONIO    CLEAR     70  59  68 S5        30.16S
WACO           CLEAR     66  58  75 S9        30.12S
WICHITA FALLS  NOT AVBL
$$
...OTHER LOCATIONS IN NEW MEXICO...

CITY           SKY/WX    TMP DP  RH WIND       PRES   REMARKS
ALAMAGORDO     NOT AVBL
ALBUQUERQUE    CLEAR     59  37  44 E3        30.29S
CANNON AFB     CLEAR     58  47  66 W6        30.20S
CLOVIS         CLEAR     59  45  58 W10       30.23S
HOLLOMAN AFB   PTCLDY    57  46  66 CALM      30.21S
ROSWELL        CLEAR     55  52  89 CALM      30.17S
RUIDOSO        CLEAR     50  39  66 SW10      30.38F
SANTA FE       CLEAR     48  23  37 N6        30.33S
TRUTH OR CONSE CLEAR     59  47  64 W8        30.25S
TUCUMCARI      CLEAR     63  48  58 SW9       30.15F
$$

USA.gov is the U.S. government's official web portal to all federal, state and local government web resources and services.